Date String (YYYY-MM-DD hh:mm:ss) UTC,Instrument flags,Ambient pressure (hPa),Sample flow (lpm),Bypass flow (lpm),Sample temperature (°C),Ambient temperature (°C),ASC tube jacket temperature (°C),LED temperature (°C),Box temperature (°C),Sample RH (%),Span deviation,Mass concentration (μg/m³),Mass concentration (μg/m³),Mass concentration (μg/m³)
DateTimeUTC,F1_M11,P_M11,Q1_M11,Q2_M11,T1_M11,T2_M11,T3_M11,T4_M11,T5_M11,U1_M11,ZSPAN_M11,X0_M11,X2_M11,X1_M11
2022-05-05 10:00:00,,0824.9,5.01,0.00,25.0,24.1,00.0,34.1,26.8,23.6,0000.0,0010.36,0006.09,0005.43
2022-05-05 10:01:00,,0824.9,5.01,0.00,25.0,24.1,00.0,34.1,26.8,23.3,-000.0,0010.32,0006.10,0005.48
2022-05-05 10:02:00,,0824.9,5.00,0.00,25.0,24.1,00.0,34.0,26.8,22.6,0000.4,0010.31,0006.11,0005.50
2022-05-05 10:03:00,,0824.9,5.00,0.00,25.0,24.1,00.0,34.0,26.8,22.5,0000.8,0010.28,0006.14,0005.52
2022-05-05 10:04:00,,0824.9,5.00,0.00,25.0,24.1,00.0,34.0,26.8,22.6,0000.3,0010.28,0006.16,0005.56
2022-05-05 10:05:00,,0824.9,5.00,0.00,25.0,24.1,00.0,34.0,26.8,22.5,0000.2,0010.29,0006.17,0005.59
2022-05-05 10:06:00,,0824.9,5.00,0.00,25.0,24.1,00.0,34.0,26.8,22.3,-000.2,0010.30,0006.17,0005.61
2022-05-05 10:07:00,,0824.8,4.99,0.00,25.0,24.1,00.0,34.0,26.8,22.2,-000.5,0010.34,0006.22,0005.63
2022-05-05 10:08:00,,0824.8,5.01,0.00,25.0,24.1,00.0,34.0,26.8,22.2,-000.6,0010.85,0006.28,0005.65
2022-05-05 10:09:00,,0824.8,5.00,0.00,25.0,24.0,00.0,34.0,26.8,21.9,-000.5,0011.17,0006.27,0005.65
2022-05-05 10:10:00,,0824.8,4.99,0.00,25.0,24.0,00.0,34.0,26.8,21.8,-000.3,0011.28,0006.27,0005.66
2022-05-05 10:11:00,,0824.8,5.00,0.00,24.9,24.0,00.0,34.0,26.7,22.0,-000.1,0010.93,0006.24,0005.64
2022-05-05 10:12:00,,0824.8,5.00,0.00,24.9,24.0,00.0,34.0,26.7,22.0,0000.1,0011.09,0006.28,0005.63
2022-05-05 10:13:00,,0824.8,4.99,0.00,24.9,24.0,00.0,34.0,26.7,22.1,-000.4,0011.16,0006.30,0005.63
2022-05-05 10:14:00,,0824.8,5.01,0.00,24.9,24.0,00.0,34.0,26.7,22.1,-000.5,0011.21,0006.31,0005.62
2022-05-05 10:15:00,,0824.8,5.01,0.00,24.9,24.0,00.0,33.9,26.6,22.0,-000.1,0011.19,0006.32,0005.60
2022-05-05 10:16:00,,0824.8,5.00,0.00,24.9,24.0,00.0,33.9,26.7,22.0,0000.2,0011.27,0006.35,0005.60
2022-05-05 10:17:00,,0824.8,5.00,0.00,24.9,24.0,00.0,33.9,26.7,21.9,0000.4,0011.22,0006.36,0005.60
2022-05-05 10:18:00,,0824.9,4.99,0.00,24.9,24.0,00.0,33.9,26.7,22.0,0000.3,0011.18,0006.33,0005.60
2022-05-05 10:19:00,,0824.9,5.00,0.00,24.9,24.0,00.0,33.9,26.6,22.1,0000.6,0010.44,0006.28,0005.61
2022-05-05 10:20:00,,0824.9,4.99,0.00,24.9,24.0,00.0,33.9,26.7,22.2,0000.6,0009.94,0006.30,0005.63
2022-05-05 10:21:00,,0824.9,5.01,0.00,24.8,24.0,00.0,33.9,26.6,22.3,0000.4,0009.76,0006.28,0005.62
2022-05-05 10:22:00,,0824.9,4.99,0.00,24.8,24.0,00.0,33.9,26.6,22.3,0000.3,0009.70,0006.26,0005.61
2022-05-05 10:23:00,,0824.9,4.99,0.00,24.8,24.0,00.0,33.9,26.7,22.4,0000.4,0009.53,0006.20,0005.58
2022-05-05 10:24:00,,0824.9,5.01,0.00,24.8,24.0,00.0,33.9,26.6,22.5,0000.5,0009.46,0006.16,0005.55
2022-05-05 10:25:00,,0824.9,4.98,0.00,24.8,24.0,00.0,33.9,26.6,22.5,0000.8,0009.37,0006.13,0005.55
2022-05-05 10:26:00,,0824.9,5.01,0.00,24.8,23.9,00.0,33.8,26.6,22.5,0000.6,0009.38,0006.08,0005.52
2022-05-05 10:27:00,,0824.9,4.99,0.00,24.8,23.9,00.0,33.8,26.6,22.6,0000.1,0009.37,0006.02,0005.47
2022-05-05 10:28:00,,0824.9,5.01,0.00,24.8,24.0,00.0,33.8,26.6,22.6,-000.3,0009.43,0005.97,0005.43
2022-05-05 10:29:00,,0824.9,4.99,0.00,24.8,24.0,00.0,33.8,26.6,22.5,-000.2,0009.33,0005.92,0005.38
2022-05-05 10:30:00,,0825.0,5.01,0.00,24.8,23.9,00.0,33.8,26.6,22.5,-000.4,0009.33,0005.89,0005.33
2022-05-05 10:31:00,,0825.0,4.99,0.00,24.8,23.9,00.0,33.8,26.6,22.4,-000.2,0009.36,0005.82,0005.27
2022-05-05 10:32:00,,0825.0,5.01,0.00,24.8,24.0,00.0,33.8,26.6,22.4,0000.0,0009.42,0005.80,0005.25
2022-05-05 10:33:00,,0824.9,5.01,0.00,24.8,24.0,00.0,33.8,26.6,22.5,0000.3,0009.65,0005.76,0005.21
2022-05-05 10:34:00,,0824.9,4.99,0.00,24.8,24.0,00.0,33.8,26.6,22.5,0000.3,0009.68,0005.74,0005.20
2022-05-05 10:35:00,,0825.0,5.00,0.00,24.8,23.9,00.0,33.8,26.6,22.5,0000.0,0009.62,0005.70,0005.17
2022-05-05 10:36:00,,0825.0,5.01,0.00,24.8,24.0,00.0,33.8,26.6,22.5,0000.0,0009.59,0005.67,0005.14
2022-05-05 10:37:00,,0825.0,4.98,0.00,24.8,23.9,00.0,33.8,26.6,22.5,0000.0,0009.64,0005.64,0005.11
2022-05-05 10:38:00,,0825.0,5.00,0.00,24.8,23.9,00.0,33.8,26.6,22.4,0000.0,0009.47,0005.60,0005.08
2022-05-05 10:39:00,,0825.0,5.00,0.00,24.8,23.9,00.0,33.8,26.6,22.4,0000.0,0009.27,0005.55,0005.06
2022-05-05 10:40:00,,0825.0,4.99,0.00,24.8,23.9,00.0,33.8,26.6,22.4,0000.0,0009.18,0005.49,0005.03
2022-05-05 10:41:00,,0824.9,5.02,0.00,24.8,23.9,00.0,33.8,26.6,22.3,0000.0,0009.08,0005.42,0004.98
2022-05-05 10:42:00,,0824.9,5.00,0.00,24.8,24.0,00.0,33.8,26.6,22.3,0000.0,0008.96,0005.41,0004.95
2022-05-05 10:43:00,,0824.9,4.99,0.00,24.8,24.0,00.0,33.8,26.6,22.3,0000.0,0008.83,0005.40,0004.93
2022-05-05 10:44:00,,0825.0,5.00,0.00,24.8,24.0,00.0,33.8,26.6,22.2,0000.0,0008.63,0005.38,0004.89
2022-05-05 10:45:00,,0824.9,5.00,0.00,24.8,24.0,00.0,33.8,26.6,22.2,0000.0,0008.52,0005.31,0004.83
2022-05-05 10:46:00,,0824.9,4.99,0.00,24.8,24.0,00.0,33.8,26.6,22.2,0000.0,0008.43,0005.24,0004.79
2022-05-05 10:47:00,,0825.0,4.99,0.00,24.8,24.0,00.0,33.8,26.7,22.2,0000.0,0008.36,0005.18,0004.74
2022-05-05 10:48:00,,0825.0,5.02,0.00,24.8,24.0,00.0,33.8,26.6,22.2,0000.0,0008.17,0005.14,0004.71
2022-05-05 10:49:00,,0825.0,5.00,0.00,24.8,24.0,00.0,33.8,26.6,22.2,0000.0,0008.24,0005.14,0004.67
2022-05-05 10:50:00,,0825.0,4.99,0.00,24.8,24.0,00.0,33.7,26.6,22.2,0000.0,0008.30,0005.15,0004.65
2022-05-05 10:51:00,,0824.9,4.99,0.00,24.8,24.0,00.0,33.8,26.6,22.2,0000.0,0008.44,0005.19,0004.64
2022-05-05 10:52:00,,0824.9,5.01,0.00,24.8,24.0,00.0,33.8,26.6,22.2,0000.0,0008.54,0005.23,0004.65
2022-05-05 10:53:00,,0824.9,5.00,0.00,24.8,24.0,00.0,33.8,26.6,22.2,0000.0,0008.67,0005.27,0004.67
2022-05-05 10:54:00,,0824.9,4.99,0.00,24.8,23.9,00.0,33.7,26.6,22.1,0000.0,0008.69,0005.28,0004.68
2022-05-05 10:55:00,,0824.9,5.01,0.00,24.8,23.9,00.0,33.7,26.6,22.0,-000.9,0008.62,0005.27,0004.69
2022-05-05 10:56:00,,0824.9,4.99,0.00,24.8,23.9,00.0,33.7,26.6,21.9,-000.2,0008.83,0005.33,0004.70
2022-05-05 10:57:00,,0824.9,5.01,0.00,24.8,23.9,00.0,33.7,26.6,21.8,0000.0,0008.92,0005.38,0004.72
2022-05-05 10:58:00,,0824.9,4.98,0.00,24.8,23.9,00.0,33.7,26.6,21.8,0000.0,0009.08,0005.45,0004.72
2022-05-05 10:59:00,,0824.9,5.00,0.00,24.8,23.9,00.0,33.7,26.6,21.8,0000.0,0009.08,0005.44,0004.73
